Change the Weather History Date:

Sunday, January 20, 2013

  Actual Average (KMFE) Record (KMFE)
Temperature  
Mean Temperature 63 °F 61 °F  
Max Temperature 78 °F 71 °F 90 °F (1954)
Min Temperature 48 °F 51 °F 27 °F (1880)
Degree Days  
Heating Degree Days 2 6  
Month to date heating degree days 131  
Since 1 July heating degree days 368  
Cooling Degree Days 0 2  
Month to date cooling degree days 40  
Year to date cooling degree days 40  
Growing Degree Days 13 (Base 50)    
Moisture  
Dew Point 50 °F    
Average Humidity 68    
Maximum Humidity 90    
Minimum Humidity 34    
Precipitation  
Precipitation 0.00 in 0.04 in 0.80 in (1994)
Month to date precipitation 0.66  
Year to date precipitation 0.66  
Sea Level Pressure  
Sea Level Pressure 30.17 in    
Wind  
Wind Speed 3 mph (ESE)    
Max Wind Speed 13 mph    
Max Gust Speed -    
Visibility 7 miles    
Events      
T = Trace of Precipitation, MM = Missing Value Source: NWS Daily Summary

Daily Weather History Graph

Daily Weather History Graph

Search for Another Location

Airport or City:

Trip Planner

Search our weather history database for the weather conditions in past years. The results will help you decide how hot, cold, wet, or windy it might be!

Date:

Astronomy

Jan. 20, 2013 Rise Set
Actual Time 7:21 AM CST 6:06 PM CST
Civil Twilight 6:56 AM CST 6:30 PM CST
Nautical Twilight 6:28 AM CST 6:59 PM CST
Astronomical Twilight 6:00 AM CST 7:26 PM CST
Moon 1:06 PM CST (1/20) 1:58 AM CST (1/20)
Length of Visible Light 11h 34m
Length of Day
10h 44m
Waxing Gibbous, 66% of the Moon is Illuminated
Jan 20
Waxing Gibbous
Jan 26
Full
Feb 3
Last Quarter
Feb 10
New
Feb 17
First Quarter

Hourly Weather History & Observations

Time (CST) Temp. Dew Point Humidity Pressure Visibility Wind Dir Wind Speed Gust Speed Precip Events Conditions
12:15 AM 54.3 °F 49.1 °F 83% 30.22 in 7.0 mi Calm Calm - N/A   Clear
12:35 AM 53.6 °F 48.4 °F 82% 30.21 in 7.0 mi Calm Calm - N/A   Clear
12:55 AM 53.4 °F 48.2 °F 82% 30.21 in 7.0 mi Calm Calm - N/A   Clear
1:15 AM 52.7 °F 46.9 °F 81% 30.20 in 7.0 mi Calm Calm - N/A   Clear
1:35 AM 52.7 °F 47.1 °F 81% 30.20 in 7.0 mi Calm Calm - N/A   Clear
1:55 AM 51.1 °F 46.8 °F 85% 30.19 in 7.0 mi East 3.5 mph - N/A   Clear
2:15 AM 51.8 °F 48.2 °F 88% 30.19 in 7.0 mi Calm Calm - N/A   Clear
2:35 AM 52.9 °F 49.1 °F 87% 30.19 in 7.0 mi Calm Calm - N/A   Clear
2:55 AM 52.7 °F 48.9 °F 87% 30.19 in 7.0 mi Calm Calm - N/A   Clear
3:35 AM 52.7 °F 49.1 °F 88% 30.18 in 7.0 mi Calm Calm - N/A   Clear
3:55 AM 52.5 °F 48.9 °F 88% 30.18 in 7.0 mi Calm Calm - N/A   Clear
4:15 AM 50.9 °F 47.3 °F 87% 30.18 in 7.0 mi Calm Calm - N/A   Clear
4:35 AM 49.8 °F 46.0 °F 87% 30.18 in 7.0 mi Calm Calm - N/A   Clear
4:55 AM 49.3 °F 45.9 °F 88% 30.19 in 7.0 mi NW 4.6 mph - N/A   Clear
5:15 AM 49.1 °F 45.9 °F 89% 30.20 in 7.0 mi Calm Calm - N/A   Clear
5:35 AM 49.3 °F 46.2 °F 89% 30.20 in 7.0 mi Calm Calm - N/A   Clear
5:55 AM 48.7 °F 45.7 °F 89% 30.20 in 5.0 mi NNW 5.8 mph - N/A   Clear
6:15 AM 48.4 °F 45.5 °F 90% 30.20 in 5.0 mi North 3.5 mph - N/A   Clear
6:35 AM 48.7 °F 45.9 °F 90% 30.20 in 5.0 mi North 3.5 mph - N/A   Clear
6:55 AM 48.4 °F 45.7 °F 90% 30.20 in 5.0 mi Calm Calm - N/A   Clear
7:15 AM 48.6 °F 45.9 °F 90% 30.21 in 5.0 mi NNW 3.5 mph - N/A   Clear
7:35 AM 48.7 °F 46.0 °F 90% 30.22 in 4.0 mi NNW 3.5 mph - N/A   Scattered Clouds
7:55 AM 49.3 °F 46.6 °F 90% 30.22 in 3.0 mi Calm Calm - N/A   Clear
8:15 AM 50.5 °F 47.8 °F 90% 30.23 in 3.0 mi Calm Calm - N/A   Clear
8:35 AM 52.0 °F 49.1 °F 90% 30.23 in 5.0 mi Calm Calm - N/A   Clear
8:55 AM 53.6 °F 49.8 °F 87% 30.24 in 5.0 mi NNW 3.5 mph - N/A   Clear
9:15 AM 55.6 °F 50.5 °F 83% 30.25 in 5.0 mi NNW 3.5 mph - N/A   Haze
9:35 AM 58.6 °F 51.4 °F 77% 30.25 in 5.0 mi Calm Calm - N/A   Haze
9:55 AM 61.3 °F 52.0 °F 71% 30.25 in 7.0 mi Calm Calm - N/A   Scattered Clouds
10:15 AM 65.5 °F 52.9 °F 64% 30.25 in 5.0 mi Calm Calm - N/A   Haze
10:35 AM 67.6 °F 53.2 °F 60% 30.25 in 7.0 mi Calm Calm - N/A   Clear
10:55 AM 69.8 °F 53.6 °F 56% 30.25 in 7.0 mi SE 5.8 mph - N/A   Clear
11:15 AM 72.0 °F 54.7 °F 54% 30.24 in 7.0 mi ESE 5.8 mph - N/A   Clear
11:55 AM 73.4 °F 55.4 °F 53% 30.21 in 7.0 mi SSE 4.6 mph - N/A   Scattered Clouds
12:15 PM 73.9 °F 55.2 °F 52% 30.20 in 7.0 mi Calm Calm - N/A   Mostly Cloudy
12:35 PM 74.3 °F 54.7 °F 50% 30.18 in 7.0 mi Calm Calm - N/A   Scattered Clouds
1:15 PM 76.1 °F 53.4 °F 45% 30.15 in 7.0 mi SSW 5.8 mph - N/A   Scattered Clouds
1:35 PM 77.0 °F 52.3 °F 42% 30.14 in 7.0 mi South 8.1 mph - N/A   Mostly Cloudy
1:55 PM 77.0 °F 52.5 °F 42% 30.12 in 7.0 mi ESE 8.1 mph - N/A   Scattered Clouds
2:15 PM 76.6 °F 50.5 °F 40% 30.11 in 7.0 mi SSW 8.1 mph - N/A   Mostly Cloudy
2:35 PM 77.5 °F 50.5 °F 39% 30.11 in 7.0 mi South 6.9 mph - N/A   Scattered Clouds
2:55 PM 78.3 °F 50.2 °F 37% 30.10 in 7.0 mi ESE 6.9 mph - N/A   Scattered Clouds
3:15 PM 76.6 °F 50.0 °F 39% 30.09 in 7.0 mi Calm Calm - N/A   Scattered Clouds
3:35 PM 78.8 °F 48.4 °F 34% 30.08 in 7.0 mi South 8.1 mph - N/A   Mostly Cloudy
3:55 PM 78.8 °F 49.3 °F 35% 30.09 in 10.0 mi South 5.8 mph - N/A   Mostly Cloudy
4:15 PM 78.1 °F 49.6 °F 37% 30.09 in 7.0 mi SSE 5.8 mph - N/A   Scattered Clouds
4:55 PM 77.7 °F 50.2 °F 38% 30.09 in 7.0 mi SE 8.1 mph - N/A   Scattered Clouds
5:15 PM 76.6 °F 50.2 °F 39% 30.09 in 7.0 mi SE 8.1 mph - N/A   Clear
5:35 PM 74.8 °F 52.9 °F 46% 30.10 in 7.0 mi ESE 12.7 mph - N/A   Scattered Clouds
5:55 PM 72.7 °F 53.6 °F 51% 30.10 in 7.0 mi ESE 11.5 mph - N/A   Scattered Clouds
6:15 PM 71.1 °F 53.4 °F 54% 30.11 in 7.0 mi ESE 12.7 mph - N/A   Scattered Clouds
6:35 PM 69.8 °F 53.1 °F 55% 30.11 in 7.0 mi East 11.5 mph - N/A   Clear
6:55 PM 68.4 °F 53.1 °F 58% 30.12 in 7.0 mi ESE 10.4 mph - N/A   Clear
7:15 PM 67.8 °F 52.5 °F 58% 30.12 in 7.0 mi ESE 10.4 mph - N/A   Clear
7:35 PM 66.7 °F 52.0 °F 59% 30.13 in 7.0 mi ESE 10.4 mph - N/A   Clear
7:55 PM 66.2 °F 52.7 °F 62% 30.13 in 7.0 mi ESE 9.2 mph - N/A   Clear
8:15 PM 65.3 °F 53.2 °F 65% 30.14 in 7.0 mi ESE 8.1 mph - N/A   Clear
8:35 PM 64.9 °F 53.6 °F 67% 30.14 in 7.0 mi ESE 6.9 mph - N/A   Clear
8:55 PM 64.2 °F 53.8 °F 69% 30.14 in 7.0 mi ESE 5.8 mph - N/A   Clear
9:15 PM 62.8 °F 53.6 °F 72% 30.14 in 7.0 mi ESE 6.9 mph - N/A   Clear
9:55 PM 62.1 °F 53.6 °F 74% 30.15 in 10.0 mi ESE 4.6 mph - N/A   Clear
11:15 PM 59.7 °F 53.2 °F 79% 30.16 in 7.0 mi SE 4.6 mph - N/A   Clear
11:35 PM 59.5 °F 53.1 °F 79% 30.16 in 7.0 mi SE 3.5 mph - N/A   Clear